Weather History for KSGJ - May, 2013

Change the Weather History Date:

Monday, May 27, 2013

  Actual Average Record
Temperature  
Mean Temperature 70 °F -  
Max Temperature 81 °F 83 °F 93 °F (2000)
Min Temperature 61 °F 67 °F 53 °F (1979)
Cooling Degree Days 6    
Growing Degree Days 20 (Base 50)    
Moisture  
Dew Point 62 °F    
Average Humidity 69    
Maximum Humidity 90    
Minimum Humidity 56    
Precipitation  
Precipitation 0.00 in - - ()
Sea Level Pressure  
Sea Level Pressure 30.21 in    
Wind  
Wind Speed 6 mph (SE)    
Max Wind Speed 18 mph    
Max Gust Speed 20 mph    
Visibility 10 miles    
Events      
Averages and records for this station are not official NWS values.
T = Trace of Precipitation, MM = Missing Value Source: NWS Daily Summary

Daily Weather History Graph

Daily Weather History Graph

Search for Another Location

Airport or City:

Trip Planner

Search our weather history database for the weather conditions in past years. The results will help you decide how hot, cold, wet, or windy it might be!

Date:

Astronomy

May. 27, 2013 Rise Set
Actual Time 6:26 AM EDT 8:19 PM EDT
Civil Twilight 5:59 AM EDT 8:46 PM EDT
Nautical Twilight 5:27 AM EDT 9:18 PM EDT
Astronomical Twilight 4:52 AM EDT 9:52 PM EDT
Moon 11:02 PM EDT (5/27) 8:59 AM EDT (5/27)
Length of Visible Light 14h 46m
Length of Day
13h 53m
Waning Gibbous, 91% of the Moon is Illuminated
May 27
Waning Gibbous
May 31
Last Quarter
Jun 8
New
Jun 16
First Quarter
Jun 23
Full

Hourly Weather History & Observations

Time (EDT) Temp. Heat Index Dew Point Humidity Pressure Visibility Wind Dir Wind Speed Gust Speed Precip Events Conditions
12:58 AM 70.0 °F - 59.0 °F 68% 30.22 in 10.0 mi South 3.5 mph - N/A   Clear
1:58 AM 66.0 °F - 59.0 °F 78% 30.21 in 10.0 mi SSW 3.5 mph - N/A   Clear
2:58 AM 64.0 °F - 59.0 °F 84% 30.20 in 10.0 mi SW 3.5 mph - N/A   Clear
3:58 AM 64.0 °F - 59.0 °F 84% 30.20 in 10.0 mi SW 3.5 mph - N/A   Clear
4:58 AM 63.0 °F - 57.9 °F 84% 30.19 in 10.0 mi Calm Calm - N/A   Clear
5:58 AM 61.0 °F - 57.9 °F 90% 30.20 in 10.0 mi Calm Calm - N/A   Clear
6:58 AM 61.0 °F - 57.0 °F 87% 30.21 in 10.0 mi Calm Calm - N/A   Clear
7:58 AM 66.9 °F - 61.0 °F 81% 30.22 in 10.0 mi Calm Calm - N/A   Clear
8:58 AM 75.0 °F - 66.0 °F 73% 30.22 in 10.0 mi Calm Calm - N/A   Clear
9:58 AM 78.1 °F - 64.0 °F 62% 30.23 in 10.0 mi ESE 6.9 mph - N/A   Clear
10:58 AM 78.1 °F - 64.0 °F 62% 30.24 in 10.0 mi ESE 8.1 mph - N/A   Partly Cloudy
11:58 AM 79.0 °F - 64.0 °F 60% 30.24 in 10.0 mi East 11.5 mph - N/A   Mostly Cloudy
12:58 PM 80.1 °F 81.9 °F 64.9 °F 60% 30.24 in 10.0 mi ESE 12.7 mph - N/A   Partly Cloudy
1:58 PM 80.1 °F 81.9 °F 64.9 °F 60% 30.23 in 10.0 mi ESE 13.8 mph - N/A   Scattered Clouds
2:58 PM 80.1 °F 81.9 °F 64.9 °F 60% 30.22 in 10.0 mi SE 12.7 mph 19.6 mph N/A   Partly Cloudy
3:58 PM 80.1 °F 81.7 °F 64.0 °F 58% 30.20 in 10.0 mi ESE 12.7 mph - N/A   Scattered Clouds
4:58 PM 80.1 °F 81.5 °F 63.0 °F 56% 30.19 in 10.0 mi SE 15.0 mph - N/A   Partly Cloudy
5:58 PM 78.1 °F - 64.9 °F 64% 30.18 in 10.0 mi SE 13.8 mph - N/A   Mostly Cloudy
6:58 PM 77.0 °F - 63.0 °F 62% 30.16 in 10.0 mi ESE 17.3 mph - N/A   Partly Cloudy
7:58 PM 75.9 °F - 63.0 °F 64% 30.17 in 10.0 mi ESE 12.7 mph - N/A   Scattered Clouds
8:58 PM 75.0 °F - 63.0 °F 66% 30.18 in 10.0 mi ESE 15.0 mph - N/A   Scattered Clouds
9:58 PM 75.0 °F - 63.0 °F 66% 30.19 in 10.0 mi ESE 13.8 mph - N/A   Mostly Cloudy
10:58 PM 75.0 °F - 63.0 °F 66% 30.20 in 10.0 mi SE 12.7 mph - N/A   Mostly Cloudy
11:58 PM 75.0 °F - 63.0 °F 66% 30.20 in 10.0 mi SE 18.4 mph - N/A   Partly Cloudy